Weather History for Central Park, NY

Change the Weather History Date:

Tuesday, November 19, 2013

  Actual Average Record
Temperature  
Mean Temperature 44 °F 47 °F  
Max Temperature 51 °F 53 °F 72 °F (1921)
Min Temperature 36 °F 41 °F 18 °F (1936)
Degree Days  
Heating Degree Days 21 18  
Month to date heating degree days 293 295  
Since 1 July heating degree days 516 608  
Cooling Degree Days 0 0  
Month to date cooling degree days 0 0  
Year to date cooling degree days 1271 1104  
Moisture  
Dew Point 22 °F    
Average Humidity 42    
Maximum Humidity 48    
Minimum Humidity 36    
Precipitation  
Precipitation 0.00 in 0.14 in 1.95 in (1932)
Month to date precipitation 0.59 2.50  
Year to date precipitation 38.91 44.42  
Snow  
Snow 0.00 in 0.10 in 1.00 in (1955)
Month to date snowfall T 0.1  
Since 1 July snowfall T 0.1  
Snow Depth 0.00 in    
Sea Level Pressure  
Sea Level Pressure 30.08 in    
Wind  
Wind Speed 9 mph (NW)    
Max Wind Speed 20 mph    
Max Gust Speed 31 mph    
Visibility 10 miles    
Events      
T = Trace of Precipitation, MM = Missing Value Source: NWS Daily Summary

Daily Weather History Graph

Daily Weather History Graph

Search for Another Location

Airport:

Trip Planner

Search our weather history database for the weather conditions in past years. The results will help you decide how hot, cold, wet, or windy it might be!

Date:

Astronomy

Nov. 19, 2013 Rise Set
Actual Time 6:47 AM EST 4:34 PM EST
Civil Twilight 6:18 AM EST 5:04 PM EST
Nautical Twilight 5:44 AM EST 5:37 PM EST
Astronomical Twilight 5:12 AM EST 6:10 PM EST
Moon 6:23 PM EST (11/19) 8:25 AM EST (11/19)
Length of Visible Light 10h 46m
Length of Day
9h 46m
Waning Gibbous, 96% of the Moon is Illuminated
Nov 19
Waning Gibbous
Nov 25
Last Quarter
Dec 2
New
Dec 9
First Quarter
Dec 17
Full

Hourly Weather History & Observations

Time (EST) Temp. Windchill Dew Point Humidity Pressure Visibility Wind Dir Wind Speed Gust Speed Precip Events Conditions
12:51 AM 50.0 °F - 25.0 °F 38% 29.79 in 10.0 mi North - - N/A   Clear
1:51 AM 50.0 °F - 24.1 °F 36% 29.81 in 10.0 mi North - - N/A   Mostly Cloudy
2:51 AM 46.9 °F - 26.1 °F 44% 29.85 in 10.0 mi Variable 6.9 mph 27.6 mph N/A   Overcast
3:51 AM 45.0 °F 38.9 °F 24.1 °F 44% 29.88 in 10.0 mi NW 12.7 mph 21.9 mph N/A   Overcast
4:51 AM 44.1 °F 37.7 °F 21.9 °F 42% 29.91 in 10.0 mi NNW 12.7 mph 23.0 mph N/A   Overcast
5:51 AM 44.1 °F 37.7 °F 21.9 °F 42% 29.94 in 10.0 mi NW 12.7 mph 19.6 mph N/A   Overcast
6:51 AM 43.0 °F 37.2 °F 21.0 °F 42% 29.98 in 10.0 mi NW 10.4 mph 16.1 mph N/A   Partly Cloudy
7:51 AM 43.0 °F 36.4 °F 21.0 °F 42% 30.00 in 10.0 mi WNW 12.7 mph 21.9 mph N/A   Mostly Cloudy
8:51 AM 44.1 °F 37.1 °F 21.9 °F 42% 30.02 in 10.0 mi NW 15.0 mph 24.2 mph N/A   Partly Cloudy
9:51 AM 45.0 °F 38.5 °F 21.9 °F 40% 30.04 in 10.0 mi WNW 13.8 mph 24.2 mph N/A   Partly Cloudy
10:51 AM 46.0 °F 40.6 °F 21.9 °F 39% 30.06 in 10.0 mi WNW 11.5 mph 25.3 mph N/A   Partly Cloudy
11:51 AM 46.9 °F - 23.0 °F 39% 30.05 in 10.0 mi NW 8.1 mph 21.9 mph N/A   Partly Cloudy
12:51 PM 46.0 °F 42.5 °F 24.1 °F 42% 30.07 in 10.0 mi Variable 6.9 mph 23.0 mph N/A   Partly Cloudy
1:51 PM 45.0 °F 39.7 °F 23.0 °F 42% 30.09 in 10.0 mi NW 10.4 mph 19.6 mph N/A   Scattered Clouds
2:51 PM 46.0 °F 39.9 °F 21.9 °F 39% 30.11 in 10.0 mi NW 13.8 mph 24.2 mph N/A   Clear
3:51 PM 46.0 °F - 23.0 °F 40% 30.14 in 10.0 mi North - - N/A   Overcast
4:51 PM 43.0 °F 40.3 °F 23.0 °F 45% 30.17 in 10.0 mi Variable 4.6 mph 21.9 mph N/A   Clear
5:51 PM 42.1 °F - 21.9 °F 45% 30.20 in 10.0 mi North - - N/A   Clear
6:51 PM 39.9 °F 33.9 °F 21.0 °F 47% 30.23 in 10.0 mi North 9.2 mph - N/A   Clear
7:51 PM 39.9 °F 35.8 °F 19.9 °F 45% 30.25 in 10.0 mi Variable 5.8 mph - N/A   Clear
8:51 PM 39.0 °F 35.7 °F 19.9 °F 46% 30.27 in 10.0 mi Variable 4.6 mph - N/A   Clear
9:51 PM 37.9 °F 33.5 °F 19.9 °F 48% 30.30 in 10.0 mi Variable 5.8 mph - N/A   Clear
10:51 PM 37.0 °F 34.5 °F 19.9 °F 50% 30.33 in 10.0 mi Variable 3.5 mph - N/A   Clear
11:51 PM 36.0 °F 33.3 °F 19.0 °F 50% 30.35 in 10.0 mi Variable 3.5 mph - N/A   Clear